Time,TemperatureF,DewpointF,PressureIn,WindDirection,WindDirectionDegrees,WindSpeedMPH,WindSpeedGustMPH,Humidity,HourlyPrecipIn,Conditions,Clouds,dailyrainin,SoftwareType,DateUTC
2013-03-17 00:02:00,54.0,42.0,29.82,East,95,3.0,6.0,63,0.00,,,0.00,,2013-03-17 05:02:00,
2013-03-17 00:12:00,54.0,42.0,29.82,East,95,3.0,6.0,63,0.00,,,0.00,,2013-03-17 05:12:00,
2013-03-17 00:22:00,54.0,43.0,29.80,East,94,1.0,5.0,65,0.00,,,0.00,,2013-03-17 05:22:00,
2013-03-17 00:32:00,53.0,42.0,29.80,East,81,2.0,8.0,65,0.00,,,0.00,,2013-03-17 05:32:00,
2013-03-17 00:42:00,53.0,42.0,29.80,East,81,2.0,8.0,65,0.00,,,0.00,,2013-03-17 05:42:00,
2013-03-17 00:52:00,53.0,42.0,29.80,ENE,63,0.0,2.0,65,0.00,,,0.00,,2013-03-17 05:52:00,
2013-03-17 01:02:00,53.0,42.0,29.80,ENE,68,0.0,2.0,66,0.00,,,0.00,,2013-03-17 06:02:00,
2013-03-17 01:12:00,53.0,42.0,29.80,ENE,68,0.0,2.0,66,0.00,,,0.00,,2013-03-17 06:12:00,
2013-03-17 01:22:00,52.0,41.0,29.79,East,80,0.0,5.0,67,0.00,,,0.00,,2013-03-17 06:22:00,
2013-03-17 01:32:00,52.0,41.0,29.79,ESE,123,0.0,1.0,67,0.00,,,0.00,,2013-03-17 06:32:00,
2013-03-17 01:42:00,52.0,41.0,29.79,ESE,123,0.0,1.0,67,0.00,,,0.00,,2013-03-17 06:42:00,
2013-03-17 01:52:00,52.0,41.0,29.79,NE,49,0.0,2.0,67,0.00,,,0.00,,2013-03-17 06:52:00,
2013-03-17 02:02:00,51.0,42.0,29.79,East,79,1.0,5.0,71,0.00,,,0.00,,2013-03-17 07:02:00,
2013-03-17 02:12:00,51.0,42.0,29.79,East,79,1.0,5.0,71,0.00,,,0.00,,2013-03-17 07:12:00,
2013-03-17 02:22:00,50.0,41.0,29.79,ENE,69,0.0,6.0,72,0.00,,,0.00,,2013-03-17 07:22:00,
2013-03-17 02:32:00,50.0,41.0,29.79,ENE,69,0.0,6.0,72,0.00,,,0.00,,2013-03-17 07:32:00,
2013-03-17 02:42:00,50.0,41.0,29.79,ENE,69,0.0,6.0,72,0.00,,,0.00,,2013-03-17 07:42:00,
2013-03-17 02:52:00,49.0,41.0,29.79,ESE,112,0.0,4.0,74,0.00,,,0.00,,2013-03-17 07:52:00,
2013-03-17 03:02:00,49.0,42.0,29.78,ENE,75,1.0,5.0,76,0.00,,,0.00,,2013-03-17 08:02:00,
2013-03-17 03:13:00,48.0,41.0,29.78,ENE,67,0.0,4.0,76,0.00,,,0.00,,2013-03-17 08:13:00,
2013-03-17 03:22:00,48.0,41.0,29.78,ENE,67,0.0,4.0,76,0.00,,,0.00,,2013-03-17 08:22:00,
2013-03-17 03:32:00,48.0,40.0,29.78,East,84,0.0,5.0,75,0.00,,,0.00,,2013-03-17 08:32:00,
2013-03-17 03:42:00,48.0,40.0,29.78,East,84,0.0,5.0,75,0.00,,,0.00,,2013-03-17 08:42:00,
2013-03-17 03:52:00,48.0,40.0,29.80,NE,46,0.0,5.0,75,0.00,,,0.00,,2013-03-17 08:52:00,
2013-03-17 04:02:00,47.0,39.0,29.79,NE,51,0.0,5.0,74,0.00,,,0.00,,2013-03-17 09:02:00,
2013-03-17 04:12:00,47.0,39.0,29.79,NE,51,0.0,5.0,74,0.00,,,0.00,,2013-03-17 09:12:00,
2013-03-17 04:22:00,47.0,39.0,29.79,NE,51,0.0,5.0,74,0.00,,,0.00,,2013-03-17 09:22:00,
2013-03-17 04:32:00,47.0,39.0,29.78,East,98,2.0,8.0,75,0.00,,,0.00,,2013-03-17 09:32:00,
2013-03-17 04:43:00,47.0,39.0,29.78,East,98,2.0,8.0,75,0.00,,,0.00,,2013-03-17 09:43:00,
2013-03-17 04:53:00,46.0,39.0,29.78,East,94,4.0,7.0,75,0.00,,,0.00,,2013-03-17 09:53:00,
2013-03-17 05:03:00,46.0,39.0,29.78,East,94,3.0,9.0,77,0.00,,,0.00,,2013-03-17 10:03:00,
2013-03-17 05:13:00,46.0,39.0,29.78,East,94,3.0,9.0,77,0.00,,,0.00,,2013-03-17 10:13:00,
2013-03-17 05:23:00,46.0,39.0,29.77,ENE,76,3.0,7.0,77,0.00,,,0.00,,2013-03-17 10:23:00,
2013-03-17 05:33:00,46.0,39.0,29.78,NE,54,1.0,9.0,77,0.00,,,0.00,,2013-03-17 10:33:00,
2013-03-17 05:42:00,46.0,39.0,29.78,NE,54,1.0,9.0,77,0.00,,,0.00,,2013-03-17 10:42:00,
2013-03-17 05:52:00,46.0,39.0,29.78,East,80,0.0,6.0,77,0.00,,,0.00,,2013-03-17 10:52:00,
2013-03-17 06:02:00,46.0,39.0,29.80,ENE,71,1.0,6.0,77,0.00,,,0.00,,2013-03-17 11:02:00,
2013-03-17 06:12:00,46.0,39.0,29.80,ENE,71,1.0,6.0,77,0.00,,,0.00,,2013-03-17 11:12:00,
2013-03-17 06:22:00,46.0,39.0,29.80,ENE,62,2.0,6.0,77,0.00,,,0.00,,2013-03-17 11:22:00,
2013-03-17 06:32:00,45.0,39.0,29.83,SE,145,0.0,6.0,78,0.00,,,0.00,,2013-03-17 11:32:00,
2013-03-17 06:42:00,45.0,39.0,29.83,SE,145,0.0,6.0,78,0.00,,,0.00,,2013-03-17 11:42:00,
2013-03-17 06:52:00,45.0,39.0,29.83,ENE,61,2.0,7.0,78,0.00,,,0.00,,2013-03-17 11:52:00,
2013-03-17 07:02:00,45.0,40.0,29.83,ESE,116,2.0,8.0,81,0.00,,,0.00,,2013-03-17 12:02:00,
2013-03-17 07:12:00,45.0,40.0,29.83,ESE,116,2.0,8.0,81,0.00,,,0.00,,2013-03-17 12:12:00,
2013-03-17 07:22:00,44.0,40.0,29.84,ENE,59,0.0,8.0,86,0.00,,,0.00,,2013-03-17 12:22:00,
2013-03-17 07:32:00,43.0,40.0,29.84,East,80,1.0,5.0,89,0.00,,,0.00,,2013-03-17 12:32:00,
2013-03-17 07:43:00,43.0,40.0,29.84,East,80,1.0,5.0,89,0.00,,,0.00,,2013-03-17 12:43:00,
2013-03-17 07:52:00,42.0,40.0,29.84,ENE,66,1.0,6.0,91,0.01,,,0.01,,2013-03-17 12:52:00,
2013-03-17 08:02:00,42.0,40.0,29.84,East,80,0.0,7.0,92,0.01,,,0.01,,2013-03-17 13:02:00,
2013-03-17 08:12:00,42.0,40.0,29.84,East,80,0.0,7.0,92,0.01,,,0.01,,2013-03-17 13:12:00,
2013-03-17 08:22:00,42.0,40.0,29.84,NE,50,2.0,7.0,93,0.01,,,0.01,,2013-03-17 13:22:00,
2013-03-17 08:32:00,42.0,40.0,29.84,East,96,3.0,7.0,93,0.01,,,0.01,,2013-03-17 13:32:00,
2013-03-17 08:42:00,42.0,40.0,29.84,East,96,3.0,7.0,93,0.01,,,0.01,,2013-03-17 13:42:00,
2013-03-17 08:52:00,42.0,40.0,29.84,East,96,3.0,7.0,93,0.01,,,0.01,,2013-03-17 13:52:00,
2013-03-17 09:02:00,42.0,40.0,29.84,ENE,62,4.0,9.0,93,0.01,,,0.02,,2013-03-17 14:02:00,
2013-03-17 09:12:00,42.0,40.0,29.84,ENE,62,4.0,9.0,93,0.01,,,0.02,,2013-03-17 14:12:00,
2013-03-17 09:22:00,42.0,40.0,29.84,ENE,76,4.0,8.0,93,0.01,,,0.02,,2013-03-17 14:22:00,
2013-03-17 09:32:00,42.0,40.0,29.84,ESE,118,4.0,12.0,93,0.01,,,0.03,,2013-03-17 14:32:00,
2013-03-17 09:42:00,42.0,40.0,29.84,ESE,118,4.0,12.0,93,0.01,,,0.03,,2013-03-17 14:42:00,
2013-03-17 09:52:00,42.0,40.0,29.84,East,82,6.0,11.0,92,0.01,,,0.03,,2013-03-17 14:52:00,
2013-03-17 10:02:00,42.0,40.0,29.84,East,95,6.0,12.0,92,0.01,,,0.03,,2013-03-17 15:02:00,
2013-03-17 10:12:00,42.0,40.0,29.84,East,95,6.0,12.0,92,0.01,,,0.03,,2013-03-17 15:12:00,
2013-03-17 10:23:00,42.0,40.0,29.83,ENE,76,5.0,12.0,93,0.01,,,0.03,,2013-03-17 15:23:00,
2013-03-17 10:33:00,42.0,40.0,29.83,East,98,4.0,7.0,93,0.01,,,0.04,,2013-03-17 15:33:00,
2013-03-17 10:42:00,42.0,40.0,29.83,East,98,4.0,7.0,93,0.01,,,0.04,,2013-03-17 15:42:00,
2013-03-17 10:52:00,42.0,40.0,29.82,ENE,78,7.0,12.0,93,0.02,,,0.05,,2013-03-17 15:52:00,
2013-03-17 11:03:00,42.0,40.0,29.81,NE,39,5.0,13.0,93,0.02,,,0.05,,2013-03-17 16:03:00,
2013-03-17 11:12:00,42.0,40.0,29.81,NE,39,5.0,13.0,93,0.02,,,0.05,,2013-03-17 16:12:00,
2013-03-17 11:23:00,42.0,40.0,29.81,ENE,66,4.0,10.0,93,0.02,,,0.05,,2013-03-17 16:23:00,
2013-03-17 11:33:00,42.0,40.0,29.81,East,82,5.0,9.0,93,0.01,,,0.05,,2013-03-17 16:33:00,
2013-03-17 11:42:00,42.0,40.0,29.81,East,82,5.0,9.0,93,0.01,,,0.05,,2013-03-17 16:42:00,
2013-03-17 11:52:00,42.0,40.0,29.81,ENE,65,6.0,12.0,93,0.00,,,0.05,,2013-03-17 16:52:00,
2013-03-17 12:02:00,42.0,40.0,29.81,ENE,70,4.0,9.0,93,0.00,,,0.05,,2013-03-17 17:02:00,
2013-03-17 12:12:00,42.0,40.0,29.81,ENE,70,4.0,9.0,93,0.00,,,0.05,,2013-03-17 17:12:00,
2013-03-17 12:22:00,42.0,40.0,29.79,East,82,6.0,9.0,93,0.00,,,0.05,,2013-03-17 17:22:00,
2013-03-17 12:33:00,43.0,41.0,29.78,East,92,5.0,9.0,94,0.00,,,0.05,,2013-03-17 17:33:00,
2013-03-17 12:42:00,43.0,41.0,29.78,East,92,5.0,9.0,94,0.00,,,0.05,,2013-03-17 17:42:00,
2013-03-17 12:52:00,43.0,41.0,29.78,ENE,67,3.0,9.0,94,0.01,,,0.06,,2013-03-17 17:52:00,
2013-03-17 13:02:00,44.0,42.0,29.77,ENE,71,5.0,9.0,93,0.01,,,0.06,,2013-03-17 18:02:00,
2013-03-17 13:12:00,44.0,42.0,29.77,ENE,71,5.0,9.0,93,0.01,,,0.06,,2013-03-17 18:12:00,
2013-03-17 13:22:00,44.0,42.0,29.76,East,82,5.0,12.0,93,0.01,,,0.06,,2013-03-17 18:22:00,
2013-03-17 13:32:00,45.0,43.0,29.75,ENE,62,3.0,11.0,92,0.01,,,0.06,,2013-03-17 18:32:00,
2013-03-17 13:42:00,45.0,43.0,29.75,ENE,62,3.0,11.0,92,0.01,,,0.06,,2013-03-17 18:42:00,
2013-03-17 13:52:00,45.0,43.0,29.75,East,96,3.0,9.0,92,0.00,,,0.06,,2013-03-17 18:52:00,
2013-03-17 14:02:00,45.0,43.0,29.74,ESE,109,4.0,8.0,94,0.00,,,0.06,,2013-03-17 19:02:00,
2013-03-17 14:12:00,45.0,43.0,29.74,ESE,109,4.0,8.0,94,0.00,,,0.06,,2013-03-17 19:12:00,
2013-03-17 14:22:00,45.0,43.0,29.72,ENE,65,4.0,10.0,93,0.00,,,0.06,,2013-03-17 19:22:00,
2013-03-17 14:33:00,45.0,43.0,29.72,ESE,106,3.0,8.0,93,0.00,,,0.06,,2013-03-17 19:33:00,
2013-03-17 14:42:00,45.0,43.0,29.72,ESE,106,3.0,8.0,93,0.00,,,0.06,,2013-03-17 19:42:00,
2013-03-17 14:53:00,46.0,44.0,29.71,ENE,71,3.0,7.0,94,0.00,,,0.06,,2013-03-17 19:53:00,
2013-03-17 15:02:00,46.0,44.0,29.70,East,86,2.0,8.0,93,0.00,,,0.06,,2013-03-17 20:02:00,
2013-03-17 15:12:00,46.0,44.0,29.70,East,86,2.0,8.0,93,0.00,,,0.06,,2013-03-17 20:12:00,
2013-03-17 15:22:00,46.0,44.0,29.70,NE,50,0.0,3.0,94,0.00,,,0.06,,2013-03-17 20:22:00,
2013-03-17 15:32:00,46.0,44.0,29.70,ENE,63,0.0,5.0,93,0.00,,,0.06,,2013-03-17 20:32:00,
2013-03-17 15:42:00,46.0,44.0,29.70,ENE,63,0.0,5.0,93,0.00,,,0.06,,2013-03-17 20:42:00,
2013-03-17 15:52:00,47.0,45.0,29.69,East,84,0.0,2.0,93,0.00,,,0.06,,2013-03-17 20:52:00,
2013-03-17 16:02:00,47.0,46.0,29.68,ESE,120,1.0,6.0,95,0.01,,,0.07,,2013-03-17 21:02:00,
2013-03-17 16:12:00,47.0,46.0,29.68,ESE,120,1.0,6.0,95,0.01,,,0.07,,2013-03-17 21:12:00,
2013-03-17 16:22:00,47.0,45.0,29.67,ENE,74,0.0,2.0,94,0.01,,,0.07,,2013-03-17 21:22:00,
2013-03-17 16:33:00,47.0,45.0,29.67,NE,52,0.0,4.0,94,0.02,,,0.08,,2013-03-17 21:33:00,
2013-03-17 16:43:00,47.0,45.0,29.67,NE,52,0.0,4.0,94,0.02,,,0.08,,2013-03-17 21:43:00,
2013-03-17 16:52:00,47.0,46.0,29.67,WNW,290,0.0,2.0,95,0.03,,,0.09,,2013-03-17 21:52:00,
2013-03-17 17:03:00,47.0,46.0,29.67,WNW,291,0.0,1.0,95,0.03,,,0.10,,2013-03-17 22:03:00,
2013-03-17 17:12:00,47.0,46.0,29.67,WNW,282,0.0,2.0,96,0.04,,,0.11,,2013-03-17 22:12:00,
2013-03-17 17:23:00,47.0,46.0,29.67,WNW,282,0.0,2.0,96,0.04,,,0.11,,2013-03-17 22:23:00,
2013-03-17 17:33:00,47.0,46.0,29.67,WNW,282,0.0,0.0,95,0.03,,,0.11,,2013-03-17 22:33:00,
2013-03-17 17:42:00,47.0,46.0,29.67,WNW,282,0.0,0.0,95,0.03,,,0.11,,2013-03-17 22:42:00,
2013-03-17 17:53:00,47.0,46.0,29.67,WNW,282,0.0,1.0,95,0.02,,,0.11,,2013-03-17 22:53:00,
2013-03-17 18:02:00,47.0,46.0,29.67,West,275,0.0,2.0,96,0.01,,,0.11,,2013-03-17 23:02:00,
2013-03-17 18:12:00,47.0,46.0,29.67,West,275,0.0,2.0,96,0.01,,,0.11,,2013-03-17 23:12:00,
2013-03-17 18:22:00,47.0,46.0,29.67,West,275,0.0,1.0,96,0.00,,,0.11,,2013-03-17 23:22:00,
2013-03-17 18:32:00,47.0,46.0,29.67,West,275,0.0,1.0,96,0.00,,,0.11,,2013-03-17 23:32:00,
2013-03-17 18:42:00,47.0,46.0,29.67,West,275,0.0,1.0,96,0.00,,,0.11,,2013-03-17 23:42:00,
2013-03-17 18:53:00,46.0,45.0,29.68,West,275,0.0,1.0,95,0.00,,,0.11,,2013-03-17 23:53:00,
2013-03-17 19:03:00,46.0,45.0,29.68,West,275,0.0,0.0,95,0.00,,,0.11,,2013-03-18 00:03:00,
2013-03-17 19:12:00,46.0,45.0,29.68,West,275,0.0,0.0,95,0.00,,,0.11,,2013-03-18 00:12:00,
2013-03-17 19:22:00,46.0,45.0,29.68,West,275,0.0,0.0,95,0.00,,,0.11,,2013-03-18 00:22:00,
2013-03-17 19:33:00,46.0,45.0,29.69,West,275,0.0,0.0,96,0.00,,,0.11,,2013-03-18 00:33:00,
2013-03-17 19:42:00,46.0,45.0,29.69,West,275,0.0,0.0,96,0.00,,,0.11,,2013-03-18 00:42:00,
2013-03-17 19:52:00,45.0,44.0,29.70,West,275,0.0,1.0,96,0.00,,,0.11,,2013-03-18 00:52:00,
2013-03-17 20:02:00,45.0,44.0,29.70,West,275,0.0,0.0,96,0.00,,,0.11,,2013-03-18 01:02:00,
2013-03-17 20:12:00,45.0,44.0,29.70,West,275,0.0,0.0,96,0.00,,,0.11,,2013-03-18 01:12:00,
2013-03-17 20:22:00,45.0,44.0,29.69,West,275,0.0,0.0,96,0.00,,,0.11,,2013-03-18 01:22:00,
2013-03-17 20:32:00,45.0,44.0,29.69,South,188,0.0,1.0,96,0.00,,,0.11,,2013-03-18 01:32:00,
2013-03-17 20:42:00,45.0,44.0,29.69,South,188,0.0,1.0,96,0.00,,,0.11,,2013-03-18 01:42:00,
2013-03-17 20:52:00,45.0,44.0,29.70,South,187,0.0,0.0,96,0.00,,,0.11,,2013-03-18 01:52:00,
2013-03-17 21:02:00,45.0,44.0,29.70,South,187,0.0,0.0,97,0.00,,,0.11,,2013-03-18 02:02:00,
2013-03-17 21:12:00,45.0,44.0,29.70,South,187,0.0,0.0,97,0.00,,,0.11,,2013-03-18 02:12:00,
2013-03-17 21:22:00,45.0,44.0,29.69,South,187,0.0,0.0,97,0.00,,,0.11,,2013-03-18 02:22:00,
2013-03-17 21:32:00,45.0,44.0,29.69,SE,130,0.0,0.0,97,0.01,,,0.12,,2013-03-18 02:32:00,
2013-03-17 21:42:00,45.0,44.0,29.69,SE,130,0.0,0.0,97,0.01,,,0.12,,2013-03-18 02:42:00,
2013-03-17 21:52:00,45.0,44.0,29.70,SE,130,0.0,0.0,97,0.01,,,0.12,,2013-03-18 02:52:00,
2013-03-17 22:02:00,46.0,45.0,29.71,SW,214,0.0,1.0,98,0.01,,,0.12,,2013-03-18 03:02:00,
2013-03-17 22:11:00,46.0,45.0,29.71,SW,214,0.0,1.0,98,0.01,,,0.12,,2013-03-18 03:11:00,
2013-03-17 22:22:00,46.0,45.0,29.71,WSW,246,0.0,0.0,98,0.01,,,0.12,,2013-03-18 03:22:00,
2013-03-17 22:33:00,46.0,45.0,29.72,WSW,246,0.0,1.0,97,0.00,,,0.12,,2013-03-18 03:33:00,
2013-03-17 22:42:00,46.0,45.0,29.72,WSW,246,0.0,1.0,97,0.00,,,0.12,,2013-03-18 03:42:00,
2013-03-17 22:53:00,46.0,45.0,29.72,WSW,246,0.0,1.0,97,0.00,,,0.12,,2013-03-18 03:53:00,
2013-03-17 23:03:00,46.0,45.0,29.72,WSW,254,0.0,2.0,98,0.00,,,0.12,,2013-03-18 04:03:00,
2013-03-17 23:13:00,46.0,45.0,29.72,WSW,254,0.0,2.0,98,0.00,,,0.12,,2013-03-18 04:13:00,
2013-03-17 23:23:00,46.0,45.0,29.72,WNW,287,0.0,2.0,98,0.00,,,0.12,,2013-03-18 04:23:00,
2013-03-17 23:33:00,46.0,45.0,29.72,South,175,0.0,4.0,98,0.00,,,0.12,,2013-03-18 04:33:00,
2013-03-17 23:42:00,46.0,45.0,29.72,South,175,0.0,4.0,98,0.00,,,0.12,,2013-03-18 04:42:00,
2013-03-17 23:52:00,46.0,45.0,29.73,West,261,0.0,5.0,97,0.00,,,0.12,,2013-03-18 04:52:00,